Regional Weather Roundup
Issued by NWS

Home | Current Version | Previous Version | Graphics & Text | Print | Product List | Glossary On
Versions: 1 2 3 4 5 6 7 8 9 10 11 12 13 14 15 16 17 18 19 20 21 22 23 24 25 26 27 28 29 30 31 32 33 34 35 36 37 38 39 40 41 42 43 44 45 46 47 48 49 50
000
ASUS43 KMKX 220211
RWRWI

WISCONSIN REGIONAL WEATHER ROUNDUP
NATIONAL WEATHER SERVICE MILWAUKEE/SULLIVAN WI
800 PM CST TUE FEB 21 2017

NOTE: "FAIR" INDICATES FEW OR NO CLOUDS BELOW 12,000 FEET WITH NO
SIGNIFICANT WEATHER AND/OR OBSTRUCTIONS TO VISIBILITY.

WIZ001-002-006>008-014>016-023>028-220300-
NORTHWEST WISCONSIN

CITY           SKY/WX    TMP DP  RH WIND       PRES   REMARKS
SUPERIOR ARPT  CLOUDY    36  34  92 CALM      29.69S
ASHLAND        CLOUDY    44  33  65 CALM      29.69F
HAYWARD        MOCLDY    48  35  60 S7        29.70F
SIREN          MOCLDY    44  38  81 CALM      29.68F
CUMBERLAND     CLOUDY    43  36  75 S7        29.71F
RICE LAKE      CLOUDY    49  38  66 S7        29.74S
CHETEK         CLOUDY    50  39  64 S5        29.73F
LADYSMITH      MOCLDY    49  36  60 S3        29.75F
EAU CLAIRE     CLOUDY    50  38  63 S8        29.73F
MENOMONIE      CLOUDY    52  39  61 S12G18    29.73F
NEW RICHMOND   CLOUDY    51  43  73 S8        29.72S
OSCEOLA        CLOUDY    48  43  81 S7        29.73F
$$

WIZ003>005-009-010-017-018-220300-
NORTH CENTRAL WISCONSIN

CITY           SKY/WX    TMP DP  RH WIND       PRES   REMARKS
MANITOWISH WTR MOCLDY    45  35  69 S7        29.72F
ARBOR VITAE    CLOUDY    46  35  65 S6          N/A
WOODRUFF       CLOUDY    46  35  65 S6          N/A
RHINELANDER    CLOUDY    49  35  58 SW10      29.76F
EAGLE RIVER    PTCLDY    46  30  54 S3        29.74F
LAND O LAKES   CLOUDY    47  31  54 S5        29.76S
PHILLIPS       MOCLDY    45  36  69 S6        29.73F
TOMAHAWK       MOCLDY    43  35  73 CALM      29.77S
MEDFORD        MOCLDY    43  35  73 S7        29.76S
MERRILL        NOT AVBL
$$

WIZ029-030-035-036-043>047-220300-
CENTRAL WISCONSIN

CITY           SKY/WX    TMP DP  RH WIND       PRES   REMARKS
WAUSAU         PTCLDY    50  34  54 S8        29.76F
MOSINEE        PTCLDY    46  36  66 S9        29.78F
MARSHFIELD     PTCLDY    49  32  52 SW6       29.77S
STEVENS POINT  MOCLDY    50  31  48 S7        29.79F
WAUPACA        CLOUDY    52  36  54 CALM      29.81S
WAUTOMA        CLOUDY    52  33  48 CALM      29.81F
WISC RAPIDS    PTCLDY    53  32  44 S6        29.79F
CAMP DOUGLAS   MOCLDY    53  35  49 S10       29.78F
$$

WIZ011>013-019>022-031-037>040-048>050-220300-
NORTHEAST WISCONSIN

CITY           SKY/WX    TMP DP  RH WIND       PRES   REMARKS
ANTIGO         CLOUDY    43  35  73 S8        29.78F
SHAWANO        PTCLDY    52  40  63 S5        29.79F
OCONTO         CLOUDY    50  39  65 S3        29.79F
STURGEON BAY   CLOUDY    48  39  71 S10       29.81F
GREEN BAY      CLOUDY    50  42  74 S9        29.80F
MANITOWOC      PTCLDY    44  40  85 S8        29.85F
APPLETON       MOCLDY    48  37  66 S8        29.80F
CLINTONVILLE   CLOUDY    48  37  66 S6        29.80S
OSHKOSH        MOCLDY    46  39  76 S9        29.82F
$$

WIZ032>034-041-042-053>061-220300-
SOUTHWEST WISCONSIN

CITY           SKY/WX    TMP DP  RH WIND       PRES   REMARKS
LA CROSSE      MOCLDY    54  39  57 S13       29.78S
SPARTA         PTCLDY    51  35  54 S5        29.79F
VIROQUA        MOCLDY    50  39  64 S13G18    29.79F
BOSCOBEL       CLOUDY    51  39  63 CALM      29.83F
PRAIRIE DU CHI CLEAR     50  38  63 CALM      29.82F
PLATTEVILLE    PTCLDY    51  39  64 S9        29.85F
$$

WIZ056-057-062-063-064-067-068-220300-
SOUTH CENTRAL WISCONSIN

CITY           SKY/WX    TMP DP  RH WIND       PRES   REMARKS
REEDSBURG      CLOUDY    53  37  54 S5        29.81F
BARABOO/DELLS  CLOUDY    52  35  52 S8        29.81F
LONE ROCK      CLOUDY    48  38  68 CALM      29.83F
MINERAL POINT  MOCLDY    52  37  58 S6        29.84F
MADISON        MOCLDY    48  35  60 S5        29.84F
MIDDLETON      PTCLDY    50  37  62 S3        29.85F
WATERTOWN      MOCLDY    44  38  82 CALM      29.86S
MONROE         MOCLDY    48  39  71 S7        29.86S
JANESVILLE     MOCLDY    52  37  58 S3        29.86S
$$

WIZ051-052-058>065-066-070>072-220300-
SOUTHEAST WISCONSIN

CITY           SKY/WX    TMP DP  RH WIND       PRES   REMARKS
MILWAUKEE      CLOUDY    47  44  90 SE5       29.87F FOG
WAUKESHA       CLEAR     52  34  50 SW3       29.87F
MILWAUKEE/TIMM CLEAR     48  43  81 CALM      29.87F
RACINE         FOG       43  42  97 S7        29.89F VSB 1/4
KENOSHA        PTCLDY    46  43  89 SE3       29.87F FOG
FOND DU LAC    CLOUDY    50  38  63 S6        29.84F
SHEBOYGAN      PTCLDY    44  42  93 S7        29.85F FOG
WEST BEND      CLOUDY    45  39  81 CALM      29.85F
JUNEAU         PTCLDY    51  38  61 S8        29.86S
$$

LSZ147-162-220300-
LAKE SUPERIOR

STATION/POSITION TIME  TEMP    WIND        PRES    WAVE
                       AIR SEA DIR/SP/G            HT/PER
                 (UTC) (F)     (DEG/KT/KT) (MB)    (FT/S)
DEVILS ISLAND    0200   45     190/  4/  5 1005.4F
PORT WING        0140   35     130/  1/  3 1005.4F
SAXON HARBOR     0140   42     220/  1/  5 1005.4F
$$

LMZ867-665-643>646-220300-
LAKE MICHIGAN

STATION/POSITION TIME  TEMP    WIND        PRES    WAVE
                       AIR SEA DIR/SP/G            HT/PER
                 (UTC) (F)     (DEG/KT/KT) (MB)    (FT/S)
CHAMBERS ISLAND  0140   49     170/  5/  8 1009.1F
NORTHPORT PIER   0140   44     160/  1/  8 1009.5F
SISTER BAY       0135   43     150/  7/ 10   N/A
ALGOMA LAKESHORE 0125          210/  9/ 10   N/A
KEWAUNEE LAKESHO 0148   47     190/  9/ 11 1010.0F
SHEBOYGAN LAKESH 0200   45     190/ 12/ 13 1011.1F
PORT WASHINGTON  0140   43     190/  4/  7 1012.5F
MILWAUKEE LAKESH 0150   41     140/ 11/ 12   N/A
KENOSHA   LAKESH 0200   40     170/  9/ 10 1011.9
$$

TC  - TEMPERATURE IN CELSIUS
VSB - VISIBILITY IN STATUTE MILES
WCI - WIND CHILL INDEX
HX  - HEAT INDEX





USA.gov is the U.S. government's official web portal to all federal, state and local government web resources and services.